[[{"header":{"parameterUnit":"m.s-1","parameterCategory":1,"la1":30.2991,"la2":30.254,"lo1":-89.0895,"lo2":-89.0444,"dy":0.0017,"dx":0.0017,"nx":28,"ny":28,"refTime":"2024-05-01T03:00:00:Z","depth":0,"parameterNumber":2,"parameterNumberName":"U-component_of_WINDS"},"data":[0,0,0,0,0,0,0,0,0,0,0,0,0,0,0,0,0,0,0,0,0,0,0,0,0,0,0,0,0,0,0,0,0,0,0,0,0,0,0,0,0,0,0,0,0,0,0,0,0,0,0,0,0,0,0,0,0,0,0.2732,0.2733,0,0.279,0.2791,0.2792,0.2803,0.2802,0.2802,0.2801,0.286,0.2862,0.2864,0,0,0,0,0,0,0,0,0,0,0,0,0,0.2628,0.263,0.2732,0.2733,0.2734,0.279,0.2791,0.2792,0.2803,0.2802,0.2802,0.2801,0.286,0.2862,0.2864,0,0,0,0,0,0,0,0,0,0,0,0,0,0.2679,0.2631,0.2732,0.2746,0.2748,0.279,0.2791,0.2792,0.2803,0.2802,0.2801,0.2801,0.2859,0.2862,0.2865,0.2897,0,0,0.2874,0.2875,0,0,0,0,0,0,0,0,0.2676,0.2682,0.2743,0.2745,0.2747,0.2789,0.2776,0.2827,0.2803,0.2782,0.2801,0.28,0.2837,0.2842,0.2854,0.29,0.2903,0.2874,0.2876,0.2877,0.2878,0,0,0,0,0,0,0,0.2672,0.268,0.2755,0.2744,0.2746,0.2748,0.2755,0.2786,0.2813,0.2784,0.2785,0.2791,0.2838,0.2851,0.2856,0.2903,0.2874,0.2877,0.2879,0.288,0.2977,0.2978,0,0,0,0,0,0,0.2666,0.2677,0.2753,0.2757,0.2709,0.2751,0.2758,0.2776,0.2812,0.2817,0.2792,0.2792,0.2846,0.2852,0.2858,0.2897,0.2877,0.288,0.2882,0.2976,0.2977,0.2978,0,0,0,0,0,0,0.2664,0.2673,0.2751,0.2717,0.2727,0.2753,0.2773,0.2777,0.2791,0.2819,0.2823,0.2801,0.2846,0.2853,0.2887,0.29,0.2881,0.2884,0.2976,0.2977,0.2978,0.2978,0,0,0,0,0,0,0.2661,0.2672,0.2686,0.2717,0.2729,0.278,0.2774,0.2779,0.2796,0.2796,0.2828,0.2833,0.2846,0.2882,0.289,0.2903,0.2887,0.2975,0.2976,0.2977,0.2977,0.2979,0.298,0,0,0,0,0,0.2657,0.2683,0.2686,0.2695,0.2746,0.2781,0.2787,0.2802,0.2797,0.281,0.2828,0.2832,0.2897,0.2886,0.2894,0.2909,0.2974,0.2976,0.2977,0.2976,0.2978,0.298,0,0,0,0,0,0,0.2652,0.2688,0.2691,0.2728,0.2751,0.2782,0.28,0.2805,0.283,0.2829,0.2846,0.2853,0.2885,0.2901,0.2888,0.2941,0.2935,0.2938,0.2931,0.2933,0.2935,0.2931,0.2889,0,0,0,0,0,0.2656,0.2681,0.271,0.274,0.2752,0.2773,0.2789,0.2799,0.2823,0.2833,0.2853,0.2876,0.2902,0.2918,0.2943,0.2978,0.2985,0.2992,0.2994,0.2996,0.2999,0.3017,0.302,0.2984,0.2984,0.2984,0,0,0.2663,0.2685,0.27,0.274,0.2759,0.2784,0.2782,0.2809,0.2828,0.2837,0.287,0.2885,0.2912,0.2946,0.2962,0.2959,0.301,0.2998,0.2999,0.3001,0.3019,0.3023,0.3026,0.2985,0.2985,0.2985,0,0,0.2688,0.2708,0.2734,0.2753,0.2782,0.2796,0.2802,0.2832,0.2842,0.2876,0.2883,0.2905,0.2949,0.2967,0.2982,0.3013,0.3017,0.302,0.303,0.3048,0.3051,0.3054,0.3064,0.3067,0.3023,0.3023,0.3023,0,0.2693,0.2732,0.2747,0.2774,0.2791,0.28,0.2826,0.2843,0.2879,0.289,0.2886,0.2941,0.2959,0.2997,0.3005,0.3017,0.3024,0.3017,0.3049,0.3052,0.3055,0.3065,0.3068,0.3023,0.3023,0.3023,0.3023,0,0.2736,0.2763,0.2781,0.2814,0.2833,0.2859,0.2878,0.2895,0.2902,0.2916,0.2949,0.2971,0.3001,0.301,0.3018,0.3049,0.3046,0.3046,0.304,0.3058,0.3068,0.3072,0.3024,0.3024,0.3024,0.3024,0,0,0.2762,0.2802,0.2808,0.2823,0.2854,0.2875,0.2901,0.293,0.2943,0.2967,0.2988,0.3025,0.3024,0.3041,0.305,0.3066,0.3087,0.3063,0.3064,0.3067,0.3122,0.3122,0.3126,0.309,0.3091,0.3092,0.3119,0,0.2791,0.2838,0.2852,0.2891,0.2916,0.2924,0.2946,0.2967,0.298,0.3002,0.3017,0.3042,0.304,0.305,0.3065,0.3082,0.3099,0.308,0.311,0.3111,0.3103,0.3131,0.3132,0.3157,0.3123,0.3124,0.3124,0,0.2831,0.2855,0.2897,0.2924,0.2935,0.2955,0.2981,0.3002,0.3026,0.3034,0.3052,0.306,0.3086,0.3078,0.3114,0.3101,0.3114,0.3123,0.3125,0.3128,0.3119,0.3135,0.3166,0.3169,0.313,0.313,0.313,0,0.2845,0.2887,0.2918,0.293,0.2962,0.2976,0.299,0.3013,0.3029,0.3051,0.3062,0.3087,0.3101,0.312,0.3134,0.3127,0.3168,0.3162,0.3176,0.3175,0.3185,0.3184,0.3217,0.3193,0.3193,0.3193,0.3193,0,0.2876,0.2901,0.2924,0.2943,0.2971,0.2986,0.3013,0.3027,0.3047,0.3067,0.3076,0.3095,0.3112,0.3133,0.3144,0.3172,0.3178,0.3185,0.3188,0.3185,0.3184,0.3193,0.3192,0.3194,0.3194,0.3193,0.3193,0,0.2896,0.2913,0.2946,0.2974,0.2981,0.3,0.3023,0.3041,0.3054,0.308,0.3087,0.3107,0.3133,0.3148,0.318,0.3188,0.3218,0.322,0.321,0.3211,0.3224,0.3223,0.3265,0.3271,0.3243,0.3243,0.3243,0,0.2915,0.2935,0.2964,0.2978,0.2992,0.3016,0.3032,0.3046,0.3062,0.309,0.3104,0.3129,0.3151,0.3191,0.3208,0.3232,0.3235,0.3248,0.3238,0.3234,0.3234,0.3233,0.3234,0.3249,0.325,0.325,0.325,0,0.2947,0.2953,0.2976,0.3002,0.302,0.3041,0.3061,0.3073,0.309,0.3108,0.3134,0.315,0.3182,0.3207,0.3233,0.3246,0.3251,0.3253,0.3257,0.3254,0.3247,0.325,0.3214,0.3252,0.3252,0.3251,0.3251,0.3251,0.2967,0.2984,0.3007,0.3031,0.3048,0.3067,0.3084,0.3099,0.3121,0.3149,0.3156,0.3182,0.3204,0.3238,0.3252,0.3272,0.3271,0.3277,0.3279,0.328,0.328,0.3244,0.3277,0.3277,0.3277,0.3277,0.3277,0,0.2998,0.3013,0.3035,0.3064,0.3083,0.3085,0.3107,0.3123,0.3146,0.3166,0.3187,0.3215,0.3239,0.3258,0.3282,0.3295,0.3297,0.33,0.33,0.3303,0.3281,0.3274,0.3298,0.3298,0.3298,0.3298,0.3298,0.3298,0.3017,0.3046,0.3055,0.3092,0.3106,0.3132,0.3145,0.3161,0.3177,0.3209,0.3229,0.3241,0.3259,0.3285,0.3306,0.3311,0.3319,0.3322,0.3327,0.3307,0.3304,0.3302,0.3296,0.3324,0.3324,0.3347,0.3347,0.3348]},{"header":{"parameterUnit":"m.s-1","parameterCategory":1,"la1":30.2991,"la2":30.254,"lo1":-89.0895,"lo2":-89.0444,"dy":0.0017,"dx":0.0017,"nx":28,"ny":28,"refTime":"2024-05-01T03:00:00:Z","depth":0,"parameterNumber":3,"parameterNumberName":"V-component_of_WINDS"},"data":[0,0,0,0,0,0,0,0,0,0,0,0,0,0,0,0,0,0,0,0,0,0,0,0,0,0,0,0,0,0,0,0,0,0,0,0,0,0,0,0,0,0,0,0,0,0,0,0,0,0,0,0,0,0,0,0,0,0,2.1568,2.1567,0,2.1506,2.1505,2.1504,2.1445,2.1444,2.1444,2.1443,2.1378,2.1377,2.1376,0,0,0,0,0,0,0,0,0,0,0,0,0,2.1634,2.1633,2.1568,2.1567,2.1566,2.1506,2.1505,2.1504,2.1445,2.1444,2.1443,2.1443,2.1379,2.1378,2.1376,0,0,0,0,0,0,0,0,0,0,0,0,0,2.1592,2.1632,2.1568,2.153,2.1525,2.1506,2.1505,2.1504,2.1445,2.1444,2.1443,2.1442,2.1379,2.1378,2.1376,2.1389,0,0,2.1371,2.1371,0,0,0,0,0,0,0,0,2.1594,2.1589,2.1536,2.1532,2.1528,2.1482,2.1504,2.1465,2.1446,2.1476,2.1443,2.1442,2.1414,2.1409,2.14,2.1386,2.1383,2.1371,2.137,2.137,2.1369,0,0,0,0,0,0,0,2.1597,2.1592,2.1543,2.1535,2.153,2.1515,2.1508,2.1497,2.1452,2.1473,2.1469,2.1462,2.1411,2.1402,2.1398,2.1382,2.1371,2.137,2.1369,2.1368,2.1375,2.1376,0,0,0,0,0,0,2.1606,2.1594,2.1545,2.1541,2.1559,2.1515,2.1507,2.1498,2.1452,2.1444,2.1463,2.146,2.1405,2.14,2.1396,2.1407,2.137,2.1368,2.1367,2.1374,2.1375,2.1376,0,0,0,0,0,0,2.1608,2.1602,2.1547,2.1567,2.1558,2.1515,2.1505,2.1497,2.1487,2.1444,2.1436,2.1462,2.1404,2.1398,2.1391,2.1404,2.1368,2.1366,2.1372,2.1374,2.1375,2.143,0,0,0,0,0,0,2.161,2.1603,2.1608,2.1567,2.1558,2.1545,2.1506,2.1497,2.1485,2.148,2.1441,2.1433,2.1402,2.1394,2.1389,2.1401,2.1365,2.1371,2.1373,2.1375,2.1427,2.1433,2.1439,0,0,0,0,0,2.1612,2.1626,2.1609,2.1603,2.1563,2.1545,2.154,2.1505,2.1486,2.1491,2.1463,2.1434,2.1403,2.1393,2.1388,2.14,2.137,2.1372,2.1375,2.1424,2.1432,2.1439,0,0,0,0,0,0,2.1669,2.162,2.16,2.1601,2.1578,2.1535,2.154,2.1514,2.1496,2.1491,2.1448,2.144,2.1438,2.1418,2.1408,2.1409,2.1383,2.1384,2.1422,2.1429,2.1435,2.1439,2.1364,0,0,0,0,0,2.1682,2.1672,2.1629,2.1634,2.1624,2.1584,2.1575,2.155,2.1524,2.1514,2.1485,2.1461,2.1445,2.1436,2.142,2.1424,2.1414,2.1429,2.1435,2.144,2.1442,2.1441,2.1447,2.1384,2.1384,2.1384,0,0,2.1708,2.1679,2.1676,2.1645,2.1624,2.1614,2.1576,2.1568,2.156,2.1512,2.1504,2.1482,2.1452,2.1451,2.1449,2.1434,2.1457,2.1443,2.1448,2.1446,2.1444,2.1451,2.1456,2.1386,2.1385,2.1385,0,0,2.1749,2.1728,2.1729,2.1709,2.1678,2.1651,2.1652,2.1613,2.1597,2.1588,2.1552,2.1542,2.1516,2.1496,2.1483,2.1517,2.149,2.1513,2.1543,2.1544,2.1549,2.1553,2.1564,2.1569,2.1514,2.1515,2.1515,0,2.1785,2.177,2.1733,2.1726,2.1713,2.167,2.167,2.1653,2.1618,2.1609,2.1594,2.1561,2.1537,2.153,2.1538,2.1529,2.1528,2.1516,2.1551,2.1555,2.1558,2.1568,2.1573,2.1517,2.1517,2.1517,2.1517,0,2.1815,2.1805,2.1809,2.1777,2.1764,2.1762,2.1723,2.1715,2.1691,2.1666,2.1657,2.1627,2.1604,2.16,2.1577,2.1589,2.1581,2.1559,2.1531,2.1568,2.1576,2.158,2.1522,2.1521,2.152,2.1519,0,0,2.1891,2.1838,2.184,2.1824,2.1787,2.1778,2.1773,2.175,2.1743,2.1721,2.1714,2.1694,2.1673,2.1657,2.1631,2.1632,2.1659,2.1609,2.1607,2.1618,2.167,2.1686,2.1692,2.1641,2.1642,2.1642,2.1672,0,2.1926,2.1914,2.188,2.1879,2.1868,2.1827,2.1822,2.1799,2.1775,2.1762,2.1736,2.1722,2.1695,2.1686,2.1684,2.1656,2.1669,2.1654,2.1634,2.1634,2.1642,2.1696,2.1714,2.1743,2.1676,2.1676,2.1676,0,2.1965,2.1945,2.1943,2.1905,2.1899,2.1896,2.1872,2.186,2.1832,2.1815,2.1798,2.1768,2.176,2.1735,2.1722,2.1713,2.1703,2.1688,2.1688,2.1684,2.1657,2.1693,2.1752,2.1756,2.1682,2.1681,2.1681,0,2.2019,2.1992,2.1987,2.1975,2.1931,2.1929,2.1911,2.1882,2.187,2.1849,2.184,2.1819,2.1806,2.179,2.1755,2.1741,2.1746,2.1718,2.1731,2.1731,2.1733,2.1733,2.179,2.1728,2.1728,2.1728,2.1728,0,2.2061,2.2061,2.201,2.2007,2.2005,2.1966,2.1966,2.1943,2.1918,2.1909,2.1872,2.1864,2.1819,2.1806,2.1779,2.1772,2.1767,2.1752,2.1745,2.1755,2.1757,2.1747,2.1744,2.1729,2.1729,2.1729,2.1729,0,2.2121,2.2087,2.2079,2.2038,2.2028,2.2028,2.1993,2.1988,2.1962,2.1951,2.1946,2.1906,2.1888,2.1852,2.1825,2.1807,2.1806,2.1793,2.1815,2.1811,2.1825,2.1823,2.1877,2.1881,2.1818,2.1818,2.1819,0,2.215,2.2149,2.2108,2.21,2.2083,2.207,2.2058,2.2019,2.2007,2.1975,2.1974,2.1954,2.1935,2.1909,2.1877,2.1856,2.1842,2.1862,2.1838,2.1848,2.1841,2.1841,2.184,2.1867,2.1868,2.1869,2.1869,0,2.2204,2.2188,2.2172,2.215,2.2136,2.2117,2.2095,2.2091,2.2047,2.2036,2.2017,2.2003,2.1975,2.1956,2.1929,2.191,2.1882,2.1877,2.1878,2.1888,2.1901,2.1893,2.1829,2.1876,2.1875,2.1875,2.1874,2.1874,2.2249,2.2246,2.2216,2.2199,2.2179,2.216,2.2153,2.2127,2.2111,2.2085,2.2063,2.2047,2.2018,2.198,2.1962,2.1948,2.1935,2.1937,2.1938,2.1939,2.1942,2.1904,2.1943,2.1943,2.1943,2.1943,2.1943,0,2.23,2.2279,2.2264,2.2236,2.2222,2.2198,2.2173,2.2163,2.2149,2.2125,2.2108,2.2086,2.2067,2.2033,2.201,2.2006,2.1992,2.2001,2.2,2.1996,2.1956,2.1957,2.2012,2.2012,2.2012,2.2012,2.2012,2.2012,2.2326,2.2319,2.2298,2.2281,2.2259,2.2243,2.2231,2.2213,2.2193,2.2171,2.2155,2.2133,2.2104,2.2079,2.206,2.205,2.2043,2.2056,2.2042,2.2005,2.1999,2.1993,2.1993,2.2055,2.2055,2.2083,2.2083,2.2083]}]]